| time (UTC) | temp F | wind direction | speed MPH | gust MPH | rain 1hr in | rain 24hr in | rain mn in | humidity % | barometer mb |
| 20260510084559 | 49 | 336 | 0.0 | 0.0 | 0.00 | 0.01 | 0.01 | 92 | 1007.0 |
| 20260510083039 | 50 | 126 | 0.0 | 0.0 | 0.01 | 0.01 | 0.01 | 92 | 1007.0 |
| 20260510081548 | 50 | 167 | 0.0 | 0.0 | 0.01 | 0.01 | 0.01 | 91 | 1007.0 |
| 20260510080041 | 51 | 334 | 0.0 | 0.0 | 0.01 | 0.01 | 0.01 | 91 | 1007.3 |
| 20260510074536 | 51 | 148 | 0.0 | 3.0 | 0.01 | 0.01 | 0.01 | 89 | 1007.3 |
| 20260510073034 | 52 | 330 | 0.0 | 6.0 | 0.00 | 0.00 | 0.00 | 87 | 1007.2 |
| 20260510071539 | 52 | 185 | 0.0 | 4.0 | 0.00 | 0.00 | 0.00 | 88 | 1007.0 |
| 20260510070038 | 52 | 158 | 0.0 | 4.0 | 0.00 | 0.00 | 0.00 | 88 | 1007.1 |
| 20260510064532 | 52 | 181 | 0.0 | 6.0 | 0.00 | 0.00 | 0.00 | 85 | 1007.2 |
| 20260510063035 | 53 | 316 | 0.0 | 7.0 | 0.00 | 0.00 | 0.00 | 82 | 1007.1 |
| 20260510061529 | 53 | 122 | 0.0 | 2.0 | 0.00 | 0.00 | 0.00 | 83 | 1007.0 |
| 20260510060029 | 53 | 172 | 0.0 | 1.0 | 0.00 | 0.00 | 0.00 | 82 | 1007.0 |
| 20260510054528 | 53 | 133 | 0.0 | 5.0 | 0.00 | 0.00 | 0.00 | 82 | 1007.1 |
| 20260510053027 | 52 | 160 | 0.0 | 4.0 | 0.00 | 0.00 | 0.00 | 82 | 1007.0 |
| 20260510051524 | 52 | 163 | 0.0 | 5.0 | 0.00 | 0.00 | 0.00 | 82 | 1007.3 |
| 20260510050020 | 52 | 143 | 0.0 | 6.0 | 0.00 | 0.00 | 0.00 | 83 | 1006.9 |
| 20260510044528 | 51 | 170 | 0.0 | 2.0 | 0.00 | 0.00 | 0.00 | 84 | 1006.9 |
| 20260510043016 | 50 | 150 | 0.0 | 1.0 | 0.00 | 0.00 | 0.00 | 85 | 1006.9 |
| 20260510041513 | 49 | 132 | 0.0 | 0.0 | 0.00 | 0.00 | 0.00 | 87 | 1006.9 |
| 20260510040011 | 49 | 167 | 0.0 | 0.0 | 0.00 | 0.00 | 0.00 | 85 | 1006.4 |
| 20260510034507 | 50 | 358 | 0.0 | 0.0 | 0.00 | 0.00 | 0.00 | 84 | 1006.7 |
| 20260510033005 | 51 | 357 | 0.0 | 0.0 | 0.00 | 0.00 | 0.00 | 83 | 1007.0 |
| 20260510031504 | 51 | 112 | 0.0 | 0.0 | 0.00 | 0.00 | 0.00 | 83 | 1007.1 |
| 20260510030004 | 51 | 110 | 0.0 | 0.0 | 0.00 | 0.00 | 0.00 | 82 | 1007.1 |
| 20260510024502 | 51 | 127 | 0.0 | 3.0 | 0.00 | 0.00 | 0.00 | 82 | 1007.4 |
| 20260510023003 | 51 | 238 | 0.0 | 0.0 | 0.00 | 0.00 | 0.00 | 82 | 1007.3 |
| 20260510021501 | 50 | 120 | 0.0 | 5.0 | 0.00 | 0.00 | 0.00 | 83 | 1007.1 |
| 20260510020002 | 50 | 137 | 0.0 | 0.0 | 0.00 | 0.00 | 0.00 | 82 | 1007.4 |
| 20260510014600 | 50 | 145 | 0.0 | 3.0 | 0.00 | 0.00 | 0.00 | 82 | 1007.5 |
| 20260510013103 | 51 | 27 | 0.0 | 1.0 | 0.00 | 0.00 | 0.00 | 81 | 1007.4 |
| 20260510011601 | 51 | 322 | 0.0 | 0.0 | 0.00 | 0.00 | 0.00 | 81 | 1007.5 |
| 20260510004556 | 51 | 150 | 0.0 | 0.0 | 0.00 | 0.00 | 0.00 | 80 | 1007.7 |
| 20260510003057 | 51 | 122 | 0.0 | 0.0 | 0.00 | 0.00 | 0.00 | 80 | 1007.9 |
| 20260510001555 | 51 | 336 | 0.0 | 0.0 | 0.00 | 0.00 | 0.00 | 79 | 1007.9 |
| 20260510000106 | 52 | 336 | 0.0 | 0.0 | 0.00 | 0.00 | 0.00 | 79 | 1008.0 |
| 20260509234600 | 52 | 335 | 0.0 | 0.0 | 0.00 | 0.00 | 0.00 | 78 | 1008.0 |
| 20260509233054 | 53 | 274 | 0.0 | 0.0 | 0.00 | 0.00 | 0.00 | 77 | 1008.0 |
| 20260509231554 | 53 | 15 | 0.0 | 1.0 | 0.00 | 0.00 | 0.00 | 76 | 1007.9 |
| 20260509230052 | 53 | 1 | 0.0 | 0.0 | 0.00 | 0.00 | 0.00 | 74 | 1007.7 |
| 20260509224552 | 54 | 304 | 0.0 | 3.0 | 0.00 | 0.00 | 0.00 | 75 | 1007.8 |
| 20260509223100 | 54 | 141 | 0.0 | 0.0 | 0.00 | 0.00 | 0.00 | 74 | 1007.8 |
| 20260509221549 | 54 | 164 | 0.0 | 0.0 | 0.00 | 0.00 | 0.00 | 74 | 1008.1 |
| 20260509220047 | 54 | 169 | 0.0 | 0.0 | 0.00 | 0.00 | 0.00 | 74 | 1007.8 |
| 20260509214547 | 54 | 179 | 0.0 | 0.0 | 0.00 | 0.00 | 0.00 | 73 | 1008.1 |
| 20260509213044 | 54 | 175 | 0.0 | 7.0 | 0.00 | 0.00 | 0.00 | 70 | 1008.2 |
| 20260509211543 | 55 | 166 | 0.0 | 1.0 | 0.00 | 0.00 | 0.00 | 70 | 1008.2 |
| 20260509210046 | 55 | 155 | 0.0 | 0.0 | 0.00 | 0.00 | 0.00 | 70 | 1008.4 |
| 20260509204549 | 55 | 11 | 0.0 | 3.0 | 0.00 | 0.00 | 0.00 | 70 | 1008.5 |
| 20260509203039 | 56 | 160 | 0.0 | 4.0 | 0.00 | 0.00 | 0.00 | 66 | 1008.7 |
| 20260509201540 | 57 | 177 | 0.0 | 9.0 | 0.00 | 0.00 | 0.00 | 65 | 1008.5 |
| 20260509200045 | 57 | 108 | 0.0 | 6.0 | 0.00 | 0.00 | 0.00 | 64 | 1008.5 |
| 20260509194539 | 57 | 143 | 0.0 | 2.0 | 0.00 | 0.00 | 0.00 | 64 | 1008.6 |
| 20260509193036 | 57 | 174 | 0.0 | 0.0 | 0.00 | 0.00 | 0.00 | 63 | 1008.7 |
| 20260509191535 | 58 | 145 | 0.0 | 0.0 | 0.00 | 0.00 | 0.00 | 59 | 1008.8 |
| 20260509190035 | 59 | 174 | 0.0 | 1.0 | 0.00 | 0.00 | 0.00 | 59 | 1008.8 |
| 20260509184543 | 59 | 204 | 0.0 | 8.0 | 0.00 | 0.00 | 0.00 | 57 | 1008.9 |
| 20260509183032 | 58 | 353 | 1.0 | 10.0 | 0.00 | 0.00 | 0.00 | 55 | 1009.2 |
| 20260509181528 | 58 | 339 | 1.0 | 8.0 | 0.00 | 0.00 | 0.00 | 52 | 1009.2 |
| 20260509180026 | 58 | 340 | 0.0 | 7.0 | 0.00 | 0.00 | 0.00 | 54 | 1009.3 |
| 20260509174533 | 58 | 323 | 0.0 | 4.0 | 0.00 | 0.00 | 0.00 | 55 | 1009.4 |
| 20260509173024 | 57 | 154 | 0.0 | 3.0 | 0.00 | 0.00 | 0.00 | 52 | 1009.5 |
| 20260509171530 | 57 | 195 | 0.0 | 3.0 | 0.00 | 0.00 | 0.00 | 52 | 1009.6 |
| 20260509170022 | 58 | 165 | 0.0 | 3.0 | 0.00 | 0.00 | 0.00 | 51 | 1009.6 |
| 20260509164521 | 59 | 173 | 0.0 | 4.0 | 0.00 | 0.00 | 0.00 | 45 | 1009.7 |
| 20260509163023 | 60 | 145 | 0.0 | 2.0 | 0.00 | 0.00 | 0.00 | 44 | 1009.9 |
| 20260509161517 | 60 | 322 | 0.0 | 3.0 | 0.00 | 0.00 | 0.00 | 42 | 1010.0 |
| 20260509160015 | 60 | 158 | 0.0 | 4.0 | 0.00 | 0.00 | 0.00 | 40 | 1010.3 |
| 20260509154515 | 60 | 143 | 0.0 | 3.0 | 0.00 | 0.00 | 0.00 | 41 | 1010.6 |
| 20260509153017 | 59 | 340 | 0.0 | 5.0 | 0.00 | 0.00 | 0.00 | 44 | 1010.9 |
| 20260509151504 | 58 | 324 | 0.0 | 5.0 | 0.00 | 0.00 | 0.00 | 40 | 1011.2 |
| 20260509150002 | 58 | 141 | 0.0 | 4.0 | 0.00 | 0.00 | 0.00 | 41 | 1011.3 |
| 20260509144611 | 57 | 173 | 0.0 | 4.0 | 0.00 | 0.00 | 0.00 | 43 | 1011.4 |
| 20260509143131 | 57 | 141 | 0.0 | 7.0 | 0.00 | 0.00 | 0.00 | 45 | 1011.6 |
| 20260509141557 | 57 | 153 | 0.0 | 3.0 | 0.00 | 0.00 | 0.00 | 49 | 1011.5 |
| 20260509140105 | 57 | 156 | 0.0 | 3.0 | 0.00 | 0.00 | 0.00 | 49 | 1011.5 |
| 20260509134610 | 57 | 169 | 0.0 | 3.0 | 0.00 | 0.00 | 0.00 | 46 | 1011.6 |
| 20260509133052 | 56 | 4 | 0.0 | 2.0 | 0.00 | 0.00 | 0.00 | 48 | 1011.6 |
| 20260509131548 | 55 | 316 | 0.0 | 2.0 | 0.00 | 0.00 | 0.00 | 49 | 1011.8 |
| 20260509130055 | 54 | 333 | 0.0 | 3.0 | 0.00 | 0.00 | 0.00 | 52 | 1011.9 |
| 20260509124536 | 49 | 148 | 0.0 | 0.0 | 0.00 | 0.00 | 0.00 | 60 | 1012.1 |
| 20260509123029 | 46 | 154 | 0.0 | 0.0 | 0.00 | 0.00 | 0.00 | 65 | 1012.2 |
| 20260509121538 | 42 | 152 | 0.0 | 0.0 | 0.00 | 0.00 | 0.00 | 71 | 1012.3 |
| 20260509120020 | 40 | 144 | 0.0 | 0.0 | 0.00 | 0.00 | 0.00 | 76 | 1012.3 |
| 20260509114528 | 38 | 158 | 0.0 | 0.0 | 0.00 | 0.00 | 0.00 | 79 | 1012.4 |
| 20260509113022 | 36 | 156 | 0.0 | 0.0 | 0.00 | 0.00 | 0.00 | 82 | 1012.4 |
| 20260509111510 | 34 | 143 | 0.0 | 0.0 | 0.00 | 0.00 | 0.00 | 84 | 1012.4 |
| 20260509110009 | 33 | 300 | 0.0 | 0.0 | 0.00 | 0.00 | 0.00 | 86 | 1012.5 |
| 20260509104508 | 32 | 301 | 0.0 | 0.0 | 0.00 | 0.00 | 0.00 | 87 | 1012.4 |
| 20260509103007 | 32 | 169 | 0.0 | 0.0 | 0.00 | 0.00 | 0.00 | 88 | 1012.3 |
| 20260509101506 | 31 | 160 | 0.0 | 0.0 | 0.00 | 0.00 | 0.00 | 89 | 1012.2 |
| 20260509100005 | 31 | 157 | 0.0 | 0.0 | 0.00 | 0.00 | 0.00 | 89 | 1012.1 |
| 20260509094511 | 31 | 156 | 0.0 | 0.0 | 0.00 | 0.00 | 0.00 | 88 | 1012.0 |
| 20260509093002 | 31 | 167 | 0.0 | 0.0 | 0.00 | 0.00 | 0.00 | 88 | 1011.8 |
| 20260509091606 | 32 | 158 | 0.0 | 0.0 | 0.00 | 0.00 | 0.00 | 88 | 1011.7 |
| 20260509090105 | 32 | 159 | 0.0 | 0.0 | 0.00 | 0.00 | 0.00 | 88 | 1011.7 |